Year,Month,Day,Hour,Minute,Value (Times are PST for temperature in C)
2006,04,17,00,00,5.30
2006,04,17,00,01,5.20
2006,04,17,00,02,5.20
2006,04,17,00,03,5.20
2006,04,17,00,04,5.30
2006,04,17,00,05,5.30
2006,04,17,00,06,5.30
2006,04,17,00,07,5.30
2006,04,17,00,08,5.40
2006,04,17,00,09,5.40
2006,04,17,00,10,5.40
2006,04,17,00,11,5.50
2006,04,17,00,12,5.50
2006,04,17,00,13,5.50
2006,04,17,00,14,5.60
2006,04,17,00,15,5.60
2006,04,17,00,16,5.60
2006,04,17,00,17,5.50
2006,04,17,00,18,5.50
2006,04,17,00,19,5.40
2006,04,17,00,20,5.30
2006,04,17,00,21,5.20
2006,04,17,00,22,5.10
2006,04,17,00,23,5.10
2006,04,17,00,24,5.20
2006,04,17,00,25,5.20
2006,04,17,00,26,5.10
2006,04,17,00,27,5.00
2006,04,17,00,28,4.90
2006,04,17,00,29,4.90
2006,04,17,00,30,5.00
2006,04,17,00,31,5.10
2006,04,17,00,32,5.00
2006,04,17,00,33,5.00
2006,04,17,00,34,5.10
2006,04,17,00,35,5.10
2006,04,17,00,36,5.10
2006,04,17,00,37,5.10
2006,04,17,00,38,5.10
2006,04,17,00,39,5.20
2006,04,17,00,40,5.20
2006,04,17,00,41,5.30
2006,04,17,00,42,5.30
2006,04,17,00,43,5.30
2006,04,17,00,44,5.30
2006,04,17,00,45,5.30
2006,04,17,00,46,5.30
2006,04,17,00,47,5.30
2006,04,17,00,48,5.10
2006,04,17,00,49,4.90
2006,04,17,00,50,4.80
2006,04,17,00,51,4.70
2006,04,17,00,52,4.60
2006,04,17,00,53,4.50
2006,04,17,00,54,4.40
2006,04,17,00,55,4.40
2006,04,17,00,56,4.40
2006,04,17,00,57,4.40
2006,04,17,00,58,4.40
2006,04,17,00,59,4.40
2006,04,17,01,00,4.50
2006,04,17,01,01,4.50
2006,04,17,01,02,4.60
2006,04,17,01,03,4.60
2006,04,17,01,04,4.60
2006,04,17,01,05,4.60
2006,04,17,01,06,4.60
2006,04,17,01,07,4.70
2006,04,17,01,08,4.80
2006,04,17,01,09,4.80
2006,04,17,01,10,4.70
2006,04,17,01,11,4.70
2006,04,17,01,12,4.70
2006,04,17,01,13,4.70
2006,04,17,01,14,4.60
2006,04,17,01,15,4.60
2006,04,17,01,16,4.60
2006,04,17,01,17,4.60
2006,04,17,01,18,4.60
2006,04,17,01,19,4.60
2006,04,17,01,20,4.50
2006,04,17,01,21,4.40
2006,04,17,01,22,4.40
2006,04,17,01,23,4.30
2006,04,17,01,24,4.30
2006,04,17,01,25,4.20
2006,04,17,01,26,4.20
2006,04,17,01,27,4.20
2006,04,17,01,28,4.20
2006,04,17,01,29,4.30
2006,04,17,01,30,4.30
2006,04,17,01,31,4.30
2006,04,17,01,32,4.30
2006,04,17,01,33,4.20
2006,04,17,01,34,4.20
2006,04,17,01,35,4.20
2006,04,17,01,36,4.30
2006,04,17,01,37,4.20
2006,04,17,01,38,4.20
2006,04,17,01,39,4.20
2006,04,17,01,40,4.20
2006,04,17,01,41,4.20
2006,04,17,01,42,4.10
2006,04,17,01,43,4.10
2006,04,17,01,44,4.10
2006,04,17,01,45,4.20
2006,04,17,01,46,4.20
2006,04,17,01,47,4.20
2006,04,17,01,48,4.20
2006,04,17,01,49,4.10
2006,04,17,01,50,4.10
2006,04,17,01,51,4.10
2006,04,17,01,52,4.00
2006,04,17,01,53,4.00
2006,04,17,01,54,4.00
2006,04,17,01,55,4.00
2006,04,17,01,56,4.00
2006,04,17,01,57,4.00
2006,04,17,01,58,4.00
2006,04,17,01,59,4.00
2006,04,17,02,00,4.00
2006,04,17,02,01,3.90
2006,04,17,02,02,3.80
2006,04,17,02,03,3.80
2006,04,17,02,04,3.80
2006,04,17,02,05,3.80
2006,04,17,02,06,3.80
2006,04,17,02,07,3.80
2006,04,17,02,08,3.70
2006,04,17,02,09,3.70
2006,04,17,02,10,3.70
2006,04,17,02,11,3.70
2006,04,17,02,12,3.70
2006,04,17,02,13,3.70
2006,04,17,02,14,3.80
2006,04,17,02,15,3.80
2006,04,17,02,16,3.80
2006,04,17,02,17,3.80
2006,04,17,02,18,3.80
2006,04,17,02,19,3.80
2006,04,17,02,20,3.80
2006,04,17,02,21,3.80
2006,04,17,02,22,3.80
2006,04,17,02,23,3.80
2006,04,17,02,24,3.80
2006,04,17,02,25,3.70
2006,04,17,02,26,3.70
2006,04,17,02,27,3.60
2006,04,17,02,28,3.60
2006,04,17,02,29,3.60
2006,04,17,02,30,3.60
2006,04,17,02,31,3.60
2006,04,17,02,32,3.60
2006,04,17,02,33,3.60
2006,04,17,02,34,3.60
2006,04,17,02,35,3.60
2006,04,17,02,36,3.60
2006,04,17,02,37,3.60
2006,04,17,02,38,3.60
2006,04,17,02,39,3.60
2006,04,17,02,40,3.60
2006,04,17,02,41,3.50
2006,04,17,02,42,3.40
2006,04,17,02,43,3.30
2006,04,17,02,44,3.30
2006,04,17,02,45,3.30
2006,04,17,02,46,3.30
2006,04,17,02,47,3.20
2006,04,17,02,48,3.20
2006,04,17,02,49,3.20
2006,04,17,02,50,3.20
2006,04,17,02,51,3.20
2006,04,17,02,52,3.20
2006,04,17,02,53,3.20
2006,04,17,02,54,3.20
2006,04,17,02,55,3.30
2006,04,17,02,56,3.30
2006,04,17,02,57,3.30
2006,04,17,02,58,3.30
2006,04,17,02,59,3.30
2006,04,17,03,00,3.30
2006,04,17,03,01,3.20
2006,04,17,03,02,3.10
2006,04,17,03,03,3.10
2006,04,17,03,04,3.00
2006,04,17,03,05,2.90
2006,04,17,03,06,2.90
2006,04,17,03,07,2.80
2006,04,17,03,08,2.80
2006,04,17,03,09,2.90
2006,04,17,03,10,2.90
2006,04,17,03,11,2.90
2006,04,17,03,12,2.90
2006,04,17,03,13,2.90
2006,04,17,03,14,2.90
2006,04,17,03,15,3.00
2006,04,17,03,16,3.10
2006,04,17,03,17,3.10
2006,04,17,03,18,3.10
2006,04,17,03,19,3.10
2006,04,17,03,20,3.10
2006,04,17,03,21,3.00
2006,04,17,03,22,2.90
2006,04,17,03,23,2.90
2006,04,17,03,24,2.90
2006,04,17,03,25,2.80
2006,04,17,03,26,2.70
2006,04,17,03,27,2.70
2006,04,17,03,28,2.70
2006,04,17,03,29,2.60
2006,04,17,03,30,2.60
2006,04,17,03,31,2.60
2006,04,17,03,32,2.60
2006,04,17,03,33,2.60
2006,04,17,03,34,2.60
2006,04,17,03,35,2.70
2006,04,17,03,36,2.70
2006,04,17,03,37,2.70
2006,04,17,03,38,2.70
2006,04,17,03,39,2.70
2006,04,17,03,40,2.60
2006,04,17,03,41,2.50
2006,04,17,03,42,2.50
2006,04,17,03,43,2.40
2006,04,17,03,44,2.40
2006,04,17,03,45,2.40
2006,04,17,03,46,2.50
2006,04,17,03,47,2.50
2006,04,17,03,48,2.50
2006,04,17,03,49,2.50
2006,04,17,03,50,2.60
2006,04,17,03,51,2.60
2006,04,17,03,52,2.60
2006,04,17,03,53,2.60
2006,04,17,03,54,2.60
2006,04,17,03,55,2.60
2006,04,17,03,56,2.70
2006,04,17,03,57,2.70
2006,04,17,03,58,2.70
2006,04,17,03,59,2.70
2006,04,17,04,00,2.70
2006,04,17,04,01,2.80
2006,04,17,04,02,2.80
2006,04,17,04,03,2.80
2006,04,17,04,04,2.80
2006,04,17,04,05,2.90
2006,04,17,04,06,2.90
2006,04,17,04,07,2.90
2006,04,17,04,08,2.80
2006,04,17,04,09,2.90
2006,04,17,04,10,2.90
2006,04,17,04,11,2.90
2006,04,17,04,12,2.90
2006,04,17,04,13,2.90
2006,04,17,04,14,3.00
2006,04,17,04,15,3.10
2006,04,17,04,16,3.10
2006,04,17,04,17,3.10
2006,04,17,04,18,3.20
2006,04,17,04,19,3.20
2006,04,17,04,20,3.20
2006,04,17,04,21,3.10
2006,04,17,04,22,3.10
2006,04,17,04,23,3.10
2006,04,17,04,24,3.10
2006,04,17,04,25,3.10
2006,04,17,04,26,3.10
2006,04,17,04,27,3.10
2006,04,17,04,28,3.10
2006,04,17,04,29,3.10
2006,04,17,04,30,3.10
2006,04,17,04,31,3.10
2006,04,17,04,32,3.10
2006,04,17,04,33,3.00
2006,04,17,04,34,2.90
2006,04,17,04,35,2.90
2006,04,17,04,36,2.90
2006,04,17,04,37,2.90
2006,04,17,04,38,2.90
2006,04,17,04,39,2.90
2006,04,17,04,40,2.90
2006,04,17,04,41,2.90
2006,04,17,04,42,2.90
2006,04,17,04,43,2.90
2006,04,17,04,44,2.90
2006,04,17,04,45,3.00
2006,04,17,04,46,3.10
2006,04,17,04,47,3.10
2006,04,17,04,48,3.10
2006,04,17,04,49,3.10
2006,04,17,04,50,3.10
2006,04,17,04,51,3.10
2006,04,17,04,52,3.10
2006,04,17,04,53,3.10
2006,04,17,04,54,3.00
2006,04,17,04,55,2.90
2006,04,17,04,56,2.90
2006,04,17,04,57,2.90
2006,04,17,04,58,2.90
2006,04,17,04,59,2.90
2006,04,17,05,00,2.90
2006,04,17,05,01,2.90
2006,04,17,05,02,2.90
2006,04,17,05,03,3.00
2006,04,17,05,04,3.10
2006,04,17,05,05,3.10
2006,04,17,05,06,3.10
2006,04,17,05,07,3.10
2006,04,17,05,08,3.10
2006,04,17,05,09,3.10
2006,04,17,05,10,3.10
2006,04,17,05,11,3.10
2006,04,17,05,12,3.10
2006,04,17,05,13,3.10
2006,04,17,05,14,3.10
2006,04,17,05,15,3.10
2006,04,17,05,16,3.20
2006,04,17,05,17,3.20
2006,04,17,05,18,3.20
2006,04,17,05,19,3.20
2006,04,17,05,20,3.20
2006,04,17,05,21,3.10
2006,04,17,05,22,3.10
2006,04,17,05,23,3.10
2006,04,17,05,24,3.10
2006,04,17,05,25,3.10
2006,04,17,05,26,3.10
2006,04,17,05,27,3.00
2006,04,17,05,28,2.90
2006,04,17,05,29,2.90
2006,04,17,05,30,2.90
2006,04,17,05,31,2.90
2006,04,17,05,32,2.90
2006,04,17,05,33,2.90
2006,04,17,05,34,2.90
2006,04,17,05,35,3.00
2006,04,17,05,36,3.10
2006,04,17,05,37,3.10
2006,04,17,05,38,3.10
2006,04,17,05,39,3.10
2006,04,17,05,40,3.00
2006,04,17,05,41,2.90
2006,04,17,05,42,2.90
2006,04,17,05,43,2.90
2006,04,17,05,44,2.90
2006,04,17,05,45,2.90
2006,04,17,05,46,2.90
2006,04,17,05,47,3.10
2006,04,17,05,48,3.20
2006,04,17,05,49,3.20
2006,04,17,05,50,3.30
2006,04,17,05,51,3.30
2006,04,17,05,52,3.30
2006,04,17,05,53,3.30
2006,04,17,05,54,3.30
2006,04,17,05,55,3.30
2006,04,17,05,56,3.30
2006,04,17,05,57,3.40
2006,04,17,05,58,3.40
2006,04,17,05,59,3.40
2006,04,17,06,00,3.30
2006,04,17,06,01,3.30
2006,04,17,06,02,3.30
2006,04,17,06,03,3.30
2006,04,17,06,04,3.30
2006,04,17,06,05,3.40
2006,04,17,06,06,3.40
2006,04,17,06,07,3.50
2006,04,17,06,08,3.50
2006,04,17,06,09,3.60
2006,04,17,06,10,3.70
2006,04,17,06,11,3.70
2006,04,17,06,12,3.80
2006,04,17,06,13,3.80
2006,04,17,06,14,3.90
2006,04,17,06,15,3.90
2006,04,17,06,16,3.90
2006,04,17,06,17,3.90
2006,04,17,06,18,3.90
2006,04,17,06,19,3.90
2006,04,17,06,20,3.90
2006,04,17,06,21,3.90
2006,04,17,06,22,3.80
2006,04,17,06,23,3.80
2006,04,17,06,24,3.80
2006,04,17,06,25,3.90
2006,04,17,06,26,3.90
2006,04,17,06,27,3.90
2006,04,17,06,28,3.90
2006,04,17,06,29,3.90
2006,04,17,06,30,4.00
2006,04,17,06,31,4.00
2006,04,17,06,32,4.00
2006,04,17,06,33,4.10
2006,04,17,06,34,4.10
2006,04,17,06,35,4.20
2006,04,17,06,36,4.20
2006,04,17,06,37,4.20
2006,04,17,06,38,4.20
2006,04,17,06,39,4.30
2006,04,17,06,40,4.40
2006,04,17,06,41,4.50
2006,04,17,06,42,4.60
2006,04,17,06,43,4.60
2006,04,17,06,44,4.60
2006,04,17,06,45,4.70
2006,04,17,06,46,4.80
2006,04,17,06,47,4.90
2006,04,17,06,48,4.90
2006,04,17,06,49,4.90
2006,04,17,06,50,4.80
2006,04,17,06,51,4.80
2006,04,17,06,52,4.70
2006,04,17,06,53,4.70
2006,04,17,06,54,4.60
2006,04,17,06,55,4.60
2006,04,17,06,56,4.60
2006,04,17,06,57,4.60
2006,04,17,06,58,4.60
2006,04,17,06,59,4.60
2006,04,17,07,00,4.60
2006,04,17,07,01,4.60
2006,04,17,07,02,4.60
2006,04,17,07,03,4.60
2006,04,17,07,04,4.60
2006,04,17,07,05,4.60
2006,04,17,07,06,4.60
2006,04,17,07,07,4.60
2006,04,17,07,08,4.60
2006,04,17,07,09,4.60
2006,04,17,07,10,4.60
2006,04,17,07,11,4.60
2006,04,17,07,12,4.60
2006,04,17,07,13,4.60
2006,04,17,07,14,4.60
2006,04,17,07,15,4.60
2006,04,17,07,16,4.70
2006,04,17,07,17,4.70
2006,04,17,07,18,4.80
2006,04,17,07,19,4.80
2006,04,17,07,20,4.90
2006,04,17,07,21,5.10
2006,04,17,07,22,5.10
2006,04,17,07,23,5.10
2006,04,17,07,24,5.10
2006,04,17,07,25,5.20
2006,04,17,07,26,5.20
2006,04,17,07,27,5.10
2006,04,17,07,28,5.10
2006,04,17,07,29,5.10
2006,04,17,07,30,5.20
2006,04,17,07,31,5.20
2006,04,17,07,32,5.10
2006,04,17,07,33,5.10
2006,04,17,07,34,5.10
2006,04,17,07,35,4.90
2006,04,17,07,36,4.90
2006,04,17,07,37,4.90
2006,04,17,07,38,4.90
2006,04,17,07,39,4.90
2006,04,17,07,40,5.00
2006,04,17,07,41,5.10
2006,04,17,07,42,5.10
2006,04,17,07,43,5.10
2006,04,17,07,44,5.10
2006,04,17,07,45,5.10
2006,04,17,07,46,5.20
2006,04,17,07,47,5.30
2006,04,17,07,48,5.30
2006,04,17,07,49,5.40
2006,04,17,07,50,5.50
2006,04,17,07,51,5.50
2006,04,17,07,52,5.60
2006,04,17,07,53,5.60
2006,04,17,07,54,5.70
2006,04,17,07,55,5.80
2006,04,17,07,56,5.90
2006,04,17,07,57,5.90
2006,04,17,07,58,6.00
2006,04,17,07,59,6.00
2006,04,17,08,00,6.00
2006,04,17,08,01,6.00
2006,04,17,08,02,6.00
2006,04,17,08,03,6.00
2006,04,17,08,04,6.10
2006,04,17,08,05,6.10
2006,04,17,08,06,6.20
2006,04,17,08,07,6.20
2006,04,17,08,08,6.20
2006,04,17,08,09,6.20
2006,04,17,08,10,6.20
2006,04,17,08,14,6.30
2006,04,17,08,15,6.20
2006,04,17,08,16,6.20
2006,04,17,08,17,6.20
2006,04,17,08,18,6.20
2006,04,17,08,19,6.20
2006,04,17,08,20,6.20
2006,04,17,08,21,6.20
2006,04,17,08,22,6.20
2006,04,17,08,23,6.30
2006,04,17,08,24,6.30
2006,04,17,08,25,6.30
2006,04,17,08,26,6.30
2006,04,17,08,27,6.40
2006,04,17,08,28,6.40
2006,04,17,08,29,6.40
2006,04,17,08,30,6.40
2006,04,17,08,31,6.50
2006,04,17,08,32,6.60
2006,04,17,08,33,6.60
2006,04,17,08,34,6.60
2006,04,17,08,35,6.60
2006,04,17,08,36,6.70
2006,04,17,08,37,6.80
2006,04,17,08,38,6.80
2006,04,17,08,39,6.80
2006,04,17,08,40,6.80
2006,04,17,08,41,6.80
2006,04,17,08,42,6.80
2006,04,17,08,43,6.90
2006,04,17,08,44,6.90
2006,04,17,08,45,7.00
2006,04,17,08,46,7.10
2006,04,17,08,47,7.10
2006,04,17,08,48,7.10
2006,04,17,08,49,7.40
2006,04,17,08,50,7.50
2006,04,17,08,51,7.60
2006,04,17,08,52,7.70
2006,04,17,08,53,7.70
2006,04,17,08,54,7.70
2006,04,17,08,55,7.70
2006,04,17,08,56,7.60
2006,04,17,08,57,7.60
2006,04,17,08,58,7.50
2006,04,17,08,59,7.40
2006,04,17,09,00,7.40
2006,04,17,09,01,7.40
2006,04,17,09,02,7.40
2006,04,17,09,03,7.40
2006,04,17,09,04,7.40
2006,04,17,09,05,7.30
2006,04,17,09,06,7.30
2006,04,17,09,07,7.30
2006,04,17,09,08,7.40
2006,04,17,09,09,7.50
2006,04,17,09,10,7.70
2006,04,17,09,11,7.80
2006,04,17,09,12,7.80
2006,04,17,09,13,7.80
2006,04,17,09,14,7.80
2006,04,17,09,15,7.80
2006,04,17,09,16,7.80
2006,04,17,09,17,7.90
2006,04,17,09,18,7.90
2006,04,17,09,19,7.80
2006,04,17,09,20,7.80
2006,04,17,09,21,7.80
2006,04,17,09,22,7.80
2006,04,17,09,23,7.80
2006,04,17,09,24,7.80
2006,04,17,09,25,7.80
2006,04,17,09,26,7.80
2006,04,17,09,27,7.90
2006,04,17,09,28,7.90
2006,04,17,09,29,7.80
2006,04,17,09,30,7.90
2006,04,17,09,31,7.90
2006,04,17,09,32,8.10
2006,04,17,09,33,8.10
2006,04,17,09,34,8.10
2006,04,17,09,35,8.00
2006,04,17,09,36,8.00
2006,04,17,09,37,7.90
2006,04,17,09,38,7.90
2006,04,17,09,39,7.80
2006,04,17,09,40,7.90
2006,04,17,09,41,7.90
2006,04,17,09,42,7.80
2006,04,17,09,43,7.80
2006,04,17,09,44,7.80
2006,04,17,09,45,7.80
2006,04,17,09,46,7.80
2006,04,17,09,47,7.90
2006,04,17,09,48,7.90
2006,04,17,09,49,7.90
2006,04,17,09,50,7.90
2006,04,17,09,51,7.80
2006,04,17,09,52,7.80
2006,04,17,09,53,7.80
2006,04,17,09,54,7.80
2006,04,17,09,55,7.80
2006,04,17,09,56,7.80
2006,04,17,09,57,7.90
2006,04,17,09,58,7.90
2006,04,17,09,59,7.90
2006,04,17,10,00,8.00
2006,04,17,10,01,8.00
2006,04,17,10,02,8.00
2006,04,17,10,03,8.00
2006,04,17,10,04,8.00
2006,04,17,10,05,8.00
2006,04,17,10,06,7.90
2006,04,17,10,07,7.90
2006,04,17,10,08,7.80
2006,04,17,10,09,7.60
2006,04,17,10,10,7.60
2006,04,17,10,11,7.60
2006,04,17,10,12,7.60
2006,04,17,10,13,7.60
2006,04,17,10,14,7.60
2006,04,17,10,15,7.50
2006,04,17,10,16,7.40
2006,04,17,10,17,7.40
2006,04,17,10,18,7.40
2006,04,17,10,19,7.40
2006,04,17,10,20,7.40
2006,04,17,10,21,7.40
2006,04,17,10,22,7.50
2006,04,17,10,23,7.50
2006,04,17,10,24,7.50
2006,04,17,10,25,7.50
2006,04,17,10,26,7.40
2006,04,17,10,27,7.40
2006,04,17,10,28,7.40
2006,04,17,10,29,7.40
2006,04,17,10,30,7.50
2006,04,17,10,31,7.60
2006,04,17,10,32,7.70
2006,04,17,10,33,7.80
2006,04,17,10,34,7.80
2006,04,17,10,35,7.70
2006,04,17,10,36,7.60
2006,04,17,10,37,7.60
2006,04,17,10,38,7.50
2006,04,17,10,39,7.50
2006,04,17,10,40,7.50
2006,04,17,10,41,7.60
2006,04,17,10,42,7.60
2006,04,17,10,43,7.70
2006,04,17,10,44,7.70
2006,04,17,10,45,7.80
2006,04,17,10,46,7.70
2006,04,17,10,47,7.70
2006,04,17,10,48,7.60
2006,04,17,10,49,7.70
2006,04,17,10,50,7.70
2006,04,17,10,51,7.70
2006,04,17,10,52,7.70
2006,04,17,10,53,7.60
2006,04,17,10,54,7.50
2006,04,17,10,55,7.50
2006,04,17,10,56,7.60
2006,04,17,10,57,7.60
2006,04,17,10,58,7.60
2006,04,17,10,59,7.70
2006,04,17,11,00,7.70
2006,04,17,11,01,7.80
2006,04,17,11,02,7.80
2006,04,17,11,03,7.90
2006,04,17,11,04,7.80
2006,04,17,11,05,7.80
2006,04,17,11,06,7.90
2006,04,17,11,07,8.00
2006,04,17,11,08,8.00
2006,04,17,11,09,8.10
2006,04,17,11,10,8.20
2006,04,17,11,11,8.20
2006,04,17,11,12,8.20
2006,04,17,11,13,8.20
2006,04,17,11,14,8.20
2006,04,17,11,15,8.20
2006,04,17,11,16,8.20
2006,04,17,11,17,8.20
2006,04,17,11,18,8.20
2006,04,17,11,19,8.00
2006,04,17,11,20,8.00
2006,04,17,11,21,8.00
2006,04,17,11,22,8.10
2006,04,17,11,23,8.20
2006,04,17,11,24,8.20
2006,04,17,11,25,8.20
2006,04,17,11,26,8.20
2006,04,17,11,27,8.30
2006,04,17,11,28,8.40
2006,04,17,11,29,8.50
2006,04,17,11,30,8.40
2006,04,17,11,31,8.40
2006,04,17,11,32,8.50
2006,04,17,11,33,8.50
2006,04,17,11,34,8.40
2006,04,17,11,35,8.40
2006,04,17,11,36,8.30
2006,04,17,11,37,8.30
2006,04,17,11,38,8.30
2006,04,17,11,39,8.40
2006,04,17,11,40,8.50
2006,04,17,11,41,8.50
2006,04,17,11,42,8.60
2006,04,17,11,43,8.60
2006,04,17,11,44,8.60
2006,04,17,11,45,8.60
2006,04,17,11,46,8.70
2006,04,17,11,47,8.60
2006,04,17,11,48,8.70
2006,04,17,11,49,8.80
2006,04,17,11,50,9.00
2006,04,17,11,51,9.00
2006,04,17,11,52,9.00
2006,04,17,11,53,9.00
2006,04,17,11,54,9.10
2006,04,17,11,55,9.00
2006,04,17,11,56,9.00
2006,04,17,11,57,9.20
2006,04,17,11,58,9.20
2006,04,17,11,59,9.30
2006,04,17,12,00,9.30
2006,04,17,12,01,9.20
2006,04,17,12,02,9.20
2006,04,17,12,03,9.20
2006,04,17,12,04,9.10
2006,04,17,12,05,9.00
2006,04,17,12,06,9.00
2006,04,17,12,07,9.00
2006,04,17,12,08,9.20
2006,04,17,12,09,9.20
2006,04,17,12,10,9.20
2006,04,17,12,11,9.20
2006,04,17,12,12,9.20
2006,04,17,12,13,9.30
2006,04,17,12,14,9.50
2006,04,17,12,15,9.50
2006,04,17,12,16,9.50
2006,04,17,12,17,9.30
2006,04,17,12,18,9.30
2006,04,17,12,19,9.20
2006,04,17,12,20,9.20
2006,04,17,12,21,9.20
2006,04,17,12,22,9.20
2006,04,17,12,23,9.20
2006,04,17,12,24,9.20
2006,04,17,12,25,9.20
2006,04,17,12,26,9.20
2006,04,17,12,27,9.40
2006,04,17,12,28,9.50
2006,04,17,12,29,9.40
2006,04,17,12,30,9.20
2006,04,17,12,31,9.10
2006,04,17,12,32,9.10
2006,04,17,12,33,9.20
2006,04,17,12,34,9.20
2006,04,17,12,35,9.30
2006,04,17,12,36,9.40
2006,04,17,12,37,9.40
2006,04,17,12,38,9.50
2006,04,17,12,39,9.60
2006,04,17,12,40,9.70
2006,04,17,12,41,9.60
2006,04,17,12,42,9.50
2006,04,17,12,43,9.40
2006,04,17,12,44,9.40
2006,04,17,12,45,9.30
2006,04,17,12,46,9.30
2006,04,17,12,47,9.50
2006,04,17,12,48,9.50
2006,04,17,12,49,9.60
2006,04,17,12,50,9.60
2006,04,17,12,51,9.70
2006,04,17,12,52,9.70
2006,04,17,12,53,9.60
2006,04,17,12,54,9.70
2006,04,17,12,55,9.70
2006,04,17,12,56,9.70
2006,04,17,12,57,9.70
2006,04,17,12,58,9.70
2006,04,17,12,59,9.70
2006,04,17,13,00,9.70
2006,04,17,13,01,9.70
2006,04,17,13,02,9.70
2006,04,17,13,03,9.80
2006,04,17,13,04,9.80
2006,04,17,13,05,9.80
2006,04,17,13,06,9.70
2006,04,17,13,07,9.70
2006,04,17,13,08,9.80
2006,04,17,13,09,9.80
2006,04,17,13,10,9.90
2006,04,17,13,11,9.90
2006,04,17,13,12,9.90
2006,04,17,13,13,10.00
2006,04,17,13,14,10.20
2006,04,17,13,15,10.10
2006,04,17,13,16,10.00
2006,04,17,13,17,9.90
2006,04,17,13,18,9.80
2006,04,17,13,19,9.80
2006,04,17,13,20,9.70
2006,04,17,13,21,9.70
2006,04,17,13,22,9.70
2006,04,17,13,23,9.70
2006,04,17,13,24,9.70
2006,04,17,13,25,9.70
2006,04,17,13,26,9.70
2006,04,17,13,27,9.80
2006,04,17,13,28,9.90
2006,04,17,13,29,9.90
2006,04,17,13,30,9.90
2006,04,17,13,31,9.80
2006,04,17,13,32,9.80
2006,04,17,13,33,9.80
2006,04,17,13,34,9.90
2006,04,17,13,35,10.10
2006,04,17,13,36,10.10
2006,04,17,13,37,10.10
2006,04,17,13,38,10.10
2006,04,17,13,39,10.10
2006,04,17,13,40,10.10
2006,04,17,13,41,10.10
2006,04,17,13,42,10.20
2006,04,17,13,43,10.10
2006,04,17,13,44,10.10
2006,04,17,13,45,9.90
2006,04,17,13,46,9.90
2006,04,17,13,47,9.90
2006,04,17,13,48,9.80
2006,04,17,13,49,9.80
2006,04,17,13,50,9.80
2006,04,17,13,51,9.70
2006,04,17,13,52,9.70
2006,04,17,13,53,9.70
2006,04,17,13,54,9.60
2006,04,17,13,55,9.60
2006,04,17,13,56,9.60
2006,04,17,13,57,9.60
2006,04,17,13,58,9.60
2006,04,17,13,59,9.60
2006,04,17,14,00,9.70
2006,04,17,14,01,9.70
2006,04,17,14,02,9.60
2006,04,17,14,03,9.50
2006,04,17,14,04,9.50
2006,04,17,14,05,9.60
2006,04,17,14,06,9.70
2006,04,17,14,07,9.70
2006,04,17,14,08,9.80
2006,04,17,14,09,9.80
2006,04,17,14,10,9.80
2006,04,17,14,11,9.70
2006,04,17,14,12,9.70
2006,04,17,14,13,9.70
2006,04,17,14,14,9.70
2006,04,17,14,15,9.70
2006,04,17,14,16,9.70
2006,04,17,14,17,9.70
2006,04,17,14,18,9.60
2006,04,17,14,19,9.50
2006,04,17,14,20,9.50
2006,04,17,14,21,9.60
2006,04,17,14,22,9.70
2006,04,17,14,23,9.70
2006,04,17,14,24,9.70
2006,04,17,14,25,9.70
2006,04,17,14,26,9.80
2006,04,17,14,27,9.90
2006,04,17,14,28,10.10
2006,04,17,14,29,10.30
2006,04,17,14,30,10.40
2006,04,17,14,31,10.50
2006,04,17,14,32,10.60
2006,04,17,14,33,10.60
2006,04,17,14,34,10.70
2006,04,17,14,35,10.80
2006,04,17,14,36,11.00
2006,04,17,14,37,11.10
2006,04,17,14,38,11.10
2006,04,17,14,39,10.90
2006,04,17,14,40,10.60
2006,04,17,14,41,10.60
2006,04,17,14,42,10.60
2006,04,17,14,43,10.80
2006,04,17,14,44,10.90
2006,04,17,14,45,11.20
2006,04,17,14,46,11.40
2006,04,17,14,47,11.40
2006,04,17,14,48,11.40
2006,04,17,14,49,11.30
2006,04,17,14,50,11.10
2006,04,17,14,51,11.00
2006,04,17,14,52,10.90
2006,04,17,14,53,11.00
2006,04,17,14,54,11.20
2006,04,17,14,55,11.20
2006,04,17,14,56,11.30
2006,04,17,14,57,11.40
2006,04,17,14,58,11.40
2006,04,17,14,59,11.40
2006,04,17,15,00,11.40
2006,04,17,15,01,11.40
2006,04,17,15,02,11.30
2006,04,17,15,03,11.10
2006,04,17,15,04,11.00
2006,04,17,15,05,10.70
2006,04,17,15,06,10.60
2006,04,17,15,07,10.60
2006,04,17,15,08,10.40
2006,04,17,15,09,10.30
2006,04,17,15,10,10.30
2006,04,17,15,11,10.30
2006,04,17,15,12,10.40
2006,04,17,15,13,10.40
2006,04,17,15,14,10.40
2006,04,17,15,15,10.40
2006,04,17,15,16,10.60
2006,04,17,15,17,10.60
2006,04,17,15,18,10.60
2006,04,17,15,19,10.60
2006,04,17,15,20,10.60
2006,04,17,15,21,10.60
2006,04,17,15,22,10.70
2006,04,17,15,23,10.70
2006,04,17,15,24,10.70
2006,04,17,15,25,10.70
2006,04,17,15,26,10.80
2006,04,17,15,27,10.80
2006,04,17,15,28,10.90
2006,04,17,15,29,10.90
2006,04,17,15,30,10.90
2006,04,17,15,31,10.80
2006,04,17,15,32,10.80
2006,04,17,15,33,10.90
2006,04,17,15,34,11.10
2006,04,17,15,35,11.30
2006,04,17,15,36,11.40
2006,04,17,15,37,11.60
2006,04,17,15,38,11.60
2006,04,17,15,39,11.60
2006,04,17,15,40,11.40
2006,04,17,15,41,11.30
2006,04,17,15,42,11.30
2006,04,17,15,43,11.10
2006,04,17,15,44,10.90
2006,04,17,15,45,10.80
2006,04,17,15,46,10.90
2006,04,17,15,47,11.10
2006,04,17,15,48,11.10
2006,04,17,15,49,11.10
2006,04,17,15,50,11.10
2006,04,17,15,51,11.20
2006,04,17,15,52,11.10
2006,04,17,15,53,10.90
2006,04,17,15,54,10.90
2006,04,17,15,55,11.00
2006,04,17,15,56,11.10
2006,04,17,15,57,11.00
2006,04,17,15,58,11.00
2006,04,17,15,59,11.10
2006,04,17,16,00,11.10
2006,04,17,16,01,11.20
2006,04,17,16,02,11.30
2006,04,17,16,03,11.40
2006,04,17,16,04,11.50
2006,04,17,16,05,11.60
2006,04,17,16,06,11.70
2006,04,17,16,07,11.60
2006,04,17,16,08,11.80
2006,04,17,16,09,11.90
2006,04,17,16,10,12.10
2006,04,17,16,11,12.10
2006,04,17,16,12,12.00
2006,04,17,16,13,12.00
2006,04,17,16,14,11.90
2006,04,17,16,15,11.90
2006,04,17,16,16,11.90
2006,04,17,16,17,12.10
2006,04,17,16,18,12.10
2006,04,17,16,19,12.00
2006,04,17,16,20,11.80
2006,04,17,16,21,11.80
2006,04,17,16,22,11.70
2006,04,17,16,23,11.60
2006,04,17,16,24,11.60
2006,04,17,16,25,11.70
2006,04,17,16,26,11.70
2006,04,17,16,27,11.80
2006,04,17,16,28,11.80
2006,04,17,16,29,11.80
2006,04,17,16,30,11.80
2006,04,17,16,31,11.90
2006,04,17,16,32,11.80
2006,04,17,16,33,11.70
2006,04,17,16,34,11.60
2006,04,17,16,35,11.70
2006,04,17,16,36,11.80
2006,04,17,16,37,11.80
2006,04,17,16,38,11.80
2006,04,17,16,39,11.70
2006,04,17,16,40,11.60
2006,04,17,16,41,11.60
2006,04,17,16,42,11.70
2006,04,17,16,43,11.70
2006,04,17,16,44,11.70
2006,04,17,16,45,11.90
2006,04,17,16,46,12.00
2006,04,17,16,47,12.10
2006,04,17,16,48,12.20
2006,04,17,16,49,12.40
2006,04,17,16,50,12.50
2006,04,17,16,51,12.80
2006,04,17,16,52,12.90
2006,04,17,16,53,13.00
2006,04,17,16,54,13.00
2006,04,17,16,55,13.00
2006,04,17,16,56,12.90
2006,04,17,16,57,12.90
2006,04,17,16,58,13.10
2006,04,17,16,59,13.10
2006,04,17,17,00,13.10
2006,04,17,17,01,13.00
2006,04,17,17,02,12.80
2006,04,17,17,03,12.60
2006,04,17,17,04,12.40
2006,04,17,17,05,12.30
2006,04,17,17,06,12.30
2006,04,17,17,07,12.30
2006,04,17,17,08,12.40
2006,04,17,17,09,12.50
2006,04,17,17,10,12.70
2006,04,17,17,11,12.70
2006,04,17,17,12,12.70
2006,04,17,17,13,12.80
2006,04,17,17,14,12.70
2006,04,17,17,15,12.70
2006,04,17,17,16,12.60
2006,04,17,17,17,12.60
2006,04,17,17,18,12.60
2006,04,17,17,19,12.70
2006,04,17,17,20,12.80
2006,04,17,17,21,12.70
2006,04,17,17,22,12.70
2006,04,17,17,23,12.60
2006,04,17,17,24,12.60
2006,04,17,17,25,12.60
2006,04,17,17,26,12.70
2006,04,17,17,27,12.80
2006,04,17,17,28,12.80
2006,04,17,17,29,12.80
2006,04,17,17,30,12.70
2006,04,17,17,31,12.70
2006,04,17,17,32,12.70
2006,04,17,17,33,12.70
2006,04,17,17,34,12.70
2006,04,17,17,35,12.70
2006,04,17,17,36,12.60
2006,04,17,17,37,12.50
2006,04,17,17,38,12.60
2006,04,17,17,39,12.60
2006,04,17,17,40,12.60
2006,04,17,17,41,12.70
2006,04,17,17,42,12.80
2006,04,17,17,43,13.00
2006,04,17,17,44,13.20
2006,04,17,17,45,13.30
2006,04,17,17,46,13.40
2006,04,17,17,47,13.50
2006,04,17,17,48,13.60
2006,04,17,17,49,13.60
2006,04,17,17,50,13.70
2006,04,17,17,51,13.70
2006,04,17,17,52,13.70
2006,04,17,17,53,13.70
2006,04,17,17,54,13.70
2006,04,17,17,55,13.70
2006,04,17,17,56,13.60
2006,04,17,17,57,13.50
2006,04,17,17,58,13.30
2006,04,17,17,59,13.20